TA2CD-18 Weather Reports


time (UTC)temp
C
wind
direction
speed
KPH
gust
KPH
rain 1hr
cm
rain 24hr
cm
rain mn
cm
humidity
%
barometer
mb
20260902120003 32 0 0.0 0.0 0.00 0.00 0.00 34 1009.8
20260902113004 31 0 0.0 0.0 0.00 0.00 0.00 36 1010.0
20260902110005 31 0 0.0 0.0 0.00 0.00 0.00 37 1010.2
20260902103005 31 0 0.0 0.0 0.00 0.00 0.00 35 1010.5
20260902100002 30 0 0.0 0.0 0.00 0.00 0.00 38 1010.7
20260902093004 30 0 0.0 0.0 0.00 0.00 0.00 39 1010.9
20260902090005 30 0 0.0 0.0 0.00 0.00 0.00 40 1011.2
20260902083004 28 0 0.0 0.0 0.00 0.00 0.00 45 1011.2
20260902080002 28 0 0.0 0.0 0.00 0.00 0.00 47 1011.4
20260902073002 27 0 0.0 0.0 0.00 0.00 0.00 52 1011.4
20260902070005 26 0 0.0 0.0 0.00 0.00 0.00 58 1011.4
20260902063003 25 0 0.0 0.0 0.00 0.00 0.00 62 1011.2
20260902060003 24 0 0.0 0.0 0.00 0.00 0.00 66 1011.2
20260902053003 22 0 0.0 0.0 0.00 0.00 0.00 68 1011.2
20260902050007 21 0 0.0 0.0 0.00 0.00 0.00 70 1011.0
20260902043002 21 0 0.0 0.0 0.00 0.00 0.00 71 1011.0
20260902040004 20 0 0.0 0.0 0.00 0.00 0.00 72 1010.9
20260902033002 20 0 0.0 0.0 0.00 0.00 0.00 72 1010.7
20260902030004 20 0 0.0 0.0 0.00 0.00 0.00 71 1010.4
20260902023002 21 0 0.0 0.0 0.00 0.00 0.00 70 1010.5
20260902020003 21 0 0.0 0.0 0.00 0.00 0.00 70 1010.2
20260902013003 21 0 0.0 0.0 0.00 0.00 0.00 70 1010.1
20260902010002 21 0 0.0 0.0 0.00 0.00 0.00 69 1010.0
20260902003002 21 0 0.0 0.0 0.00 0.00 0.00 69 1010.0
20260902000002 21 0 0.0 0.0 0.00 0.00 0.00 68 1009.9
20260901233004 22 0 0.0 0.0 0.00 0.00 0.00 68 1009.8
20260901230004 22 0 0.0 0.0 0.00 0.00 0.00 68 1009.8
20260901223006 22 0 0.0 0.0 0.00 0.00 0.00 68 1010.0
20260901220004 22 0 0.0 0.0 0.00 0.00 0.00 67 1009.9
20260901213002 22 0 0.0 0.0 0.00 0.00 0.00 66 1009.9
20260901210003 23 0 0.0 0.0 0.00 0.00 0.00 65 1009.8
20260901203005 23 0 0.0 0.0 0.00 0.00 0.00 63 1009.7
20260901200003 23 0 0.0 0.0 0.00 0.00 0.00 62 1009.6
20260901193003 23 0 0.0 0.0 0.00 0.00 0.00 60 1009.8
20260901190004 24 0 0.0 0.0 0.00 0.00 0.00 60 1009.8
20260901183002 24 0 0.0 0.0 0.00 0.00 0.00 58 1009.6
20260901180003 25 0 0.0 0.0 0.00 0.00 0.00 55 1009.2
20260901173003 25 0 0.0 0.0 0.00 0.00 0.00 51 1009.0
20260901170003 26 0 0.0 0.0 0.00 0.00 0.00 47 1008.5
20260901163002 27 0 0.0 0.0 0.00 0.00 0.00 44 1008.4
20260901160003 28 0 0.0 0.0 0.00 0.00 0.00 42 1008.4
20260901153002 29 0 0.0 0.0 0.00 0.00 0.00 40 1008.4
20260901150002 31 0 0.0 0.0 0.00 0.00 0.00 35 1008.3
20260901143003 36 0 0.0 0.0 0.00 0.00 0.00 28 1008.0
20260901140002 37 0 0.0 0.0 0.00 0.00 0.00 28 1008.0
20260901134500 38 0 0.0 0.0 0.00 0.00 0.00 27 1008.0